Location: Unspecified
(51.3762°N, 0.0000°E)
Time: 17:52:13
(UTC+00:00)

nSIGHT-1 - Pass Details

Date: 31 August 2019
Orbit: 337 x 343 km, 51.6° (Epoch: 16 October)

Event Time Altitude Azimuth Distance (km) Brightness Sun altitude
Exits shadow 04:34:01 - 280° (W) 1,642 ? -6.2°
Reaches altitude 10° 04:34:54 10° 277° (W) 1,283 ? -6.1°
Maximum altitude 04:37:40 49° 201° (SSW) 445 ? -5.7°
Drops below altitude 10° 04:40:26 10° 125° (SE) 1,277 ? -5.3°
Sets 04:42:27 0° 120° (ESE) 2,114 ? -5.0°
